,,,PA_Meas_PMT16A,,PR_Meas_QMR101_102,,RH_Meas_QMH101,,SR_Meas_QMS101,,TA_Meas_QMH101,,GenWind,,GenWind,
date,time,status,PA,status,PR,status,RH,status,SR,status,TA,status,DirAvg,status,SpdAvg,
2014-03-03, 00:00:05,VALID,1010.9,VALID,0,INVALID,109.147,VALID,0,VALID,24.1812,VALID,80,VALID,0,
2014-03-03, 00:01:05,VALID,1010.89,VALID,0,INVALID,109.163,VALID,0,VALID,24.1617,VALID,80,VALID,0,
2014-03-03, 00:02:05,VALID,1010.89,VALID,0,INVALID,109.17,VALID,0,VALID,24.1617,VALID,80,VALID,0,
2014-03-03, 00:03:05,VALID,1010.89,VALID,0,INVALID,109.147,VALID,0,VALID,24.1422,VALID,80,VALID,0,
2014-03-03, 00:04:05,VALID,1010.89,VALID,0,INVALID,109.147,VALID,0,VALID,24.1422,VALID,80,VALID,0,
2014-03-03, 00:05:05,VALID,1010.9,VALID,0,INVALID,109.132,VALID,0,VALID,24.1422,VALID,80,VALID,0,
2014-03-03, 00:06:05,VALID,1010.92,VALID,0,INVALID,109.125,VALID,0,VALID,24.1617,VALID,80,VALID,0,
2014-03-03, 00:07:05,VALID,1010.9,VALID,0,INVALID,109.132,VALID,0,VALID,24.1422,VALID,81,VALID,0,
2014-03-03, 00:08:05,VALID,1010.94,VALID,0,INVALID,109.132,VALID,0,VALID,24.1422,VALID,80,VALID,0,
2014-03-03, 00:09:05,VALID,1010.95,VALID,0,INVALID,109.132,VALID,0,VALID,24.1422,VALID,81,VALID,0,
2014-03-03, 00:10:05,VALID,1010.99,VALID,0,INVALID,109.132,VALID,0,VALID,24.1209,VALID,81,VALID,0,
2014-03-03, 00:11:05,VALID,1010.98,VALID,0,INVALID,109.14,VALID,0,VALID,24.1227,VALID,81,VALID,0,
2014-03-03, 00:12:05,VALID,1011.01,VALID,0,INVALID,109.102,VALID,0,VALID,24.1209,VALID,80,VALID,0,
2014-03-03, 00:13:05,VALID,1010.98,VALID,0,INVALID,109.14,VALID,0,VALID,24.1209,VALID,81,VALID,0,
2014-03-03, 00:14:05,VALID,1010.98,VALID,0,INVALID,109.117,VALID,0,VALID,24.1014,VALID,80,VALID,0,
2014-03-03, 00:15:05,VALID,1010.96,VALID,0,INVALID,109.14,VALID,0,VALID,24.1014,VALID,80,VALID,0,
2014-03-03, 00:16:05,VALID,1010.97,VALID,0,INVALID,109.147,VALID,0,VALID,24.0819,VALID,80,VALID,0,
2014-03-03, 00:17:05,VALID,1010.96,VALID,0,INVALID,109.132,VALID,0,VALID,24.1014,VALID,80,VALID,0,
2014-03-03, 00:18:05,VALID,1010.94,VALID,0,INVALID,109.132,VALID,0,VALID,24.1014,VALID,80,VALID,0,
2014-03-03, 00:19:05,VALID,1010.92,VALID,0,INVALID,109.125,VALID,0,VALID,24.1014,VALID,80,VALID,0,
2014-03-03, 00:20:05,VALID,1010.91,VALID,0,INVALID,109.132,VALID,0.112112,VALID,24.1014,VALID,80,VALID,0,
2014-03-03, 00:21:05,VALID,1010.9,VALID,0,INVALID,109.132,VALID,0.112112,VALID,24.1014,VALID,80,VALID,0,
2014-03-03, 00:22:05,VALID,1010.89,VALID,0,INVALID,109.147,VALID,0.112112,VALID,24.0624,VALID,80,VALID,0,
2014-03-03, 00:23:05,VALID,1010.89,VALID,0,INVALID,109.163,VALID,0.112112,VALID,24.0429,VALID,80,VALID,0,
2014-03-03, 00:24:05,VALID,1010.89,VALID,0,INVALID,109.193,VALID,0.112112,VALID,24.0235,VALID,80,VALID,0,
2014-03-03, 00:25:05,VALID,1010.88,VALID,0,INVALID,109.178,VALID,0,VALID,23.9845,VALID,80,VALID,0,
2014-03-03, 00:26:05,VALID,1010.88,VALID,0,INVALID,109.178,VALID,0,VALID,23.9845,VALID,80,VALID,0,
2014-03-03, 00:27:05,VALID,1010.87,VALID,0,INVALID,109.155,VALID,0.112112,VALID,23.9845,VALID,80,VALID,0,
2014-03-03, 00:28:05,VALID,1010.89,VALID,0,INVALID,109.17,VALID,0,VALID,23.965,VALID,80,VALID,0,
2014-03-03, 00:29:05,VALID,1010.88,VALID,0,INVALID,109.147,VALID,0.112112,VALID,23.9845,VALID,80,VALID,0,
2014-03-03, 00:30:05,VALID,1010.86,VALID,0,INVALID,109.14,VALID,0.112112,VALID,23.9845,VALID,80,VALID,0,
2014-03-03, 00:31:05,VALID,1010.85,VALID,0,INVALID,109.163,VALID,0,VALID,23.9455,VALID,80,VALID,0,
2014-03-03, 00:32:05,VALID,1010.82,VALID,0,INVALID,109.178,VALID,0,VALID,23.9065,VALID,80,VALID,0,
2014-03-03, 00:33:05,VALID,1010.81,VALID,0,INVALID,109.178,VALID,0.112112,VALID,23.8871,VALID,80,VALID,0,
2014-03-03, 00:34:05,VALID,1010.78,VALID,0,INVALID,109.186,VALID,0,VALID,23.8889,VALID,80,VALID,0,
2014-03-03, 00:35:05,VALID,1010.73,VALID,0,INVALID,109.178,VALID,0,VALID,23.8481,VALID,80,VALID,0,
2014-03-03, 00:36:05,VALID,1010.71,VALID,0,INVALID,109.155,VALID,0,VALID,23.8481,VALID,80,VALID,0,
2014-03-03, 00:37:05,VALID,1010.72,VALID,0,INVALID,109.14,VALID,0,VALID,23.8481,VALID,80,VALID,0,
2014-03-03, 00:38:05,VALID,1010.67,VALID,0,INVALID,109.125,VALID,0.112112,VALID,23.8481,VALID,80,VALID,0,
2014-03-03, 00:39:05,VALID,1010.66,VALID,0,INVALID,109.132,VALID,0,VALID,23.8481,VALID,80,VALID,0,
2014-03-03, 00:40:05,VALID,1010.65,VALID,0,INVALID,109.147,VALID,0.112112,VALID,23.8286,VALID,80,VALID,0,
2014-03-03, 00:41:05,VALID,1010.65,VALID,0,INVALID,109.163,VALID,0,VALID,23.8304,VALID,80,VALID,0,
2014-03-03, 00:42:05,VALID,1010.63,VALID,0,INVALID,109.155,VALID,0,VALID,23.8091,VALID,80,VALID,0,
2014-03-03, 00:43:05,VALID,1010.61,VALID,0,INVALID,109.109,VALID,0,VALID,23.8286,VALID,80,VALID,0,
2014-03-03, 00:44:05,VALID,1010.59,VALID,0,INVALID,109.102,VALID,0,VALID,23.8286,VALID,80,VALID,0,
2014-03-03, 00:45:05,VALID,1010.57,VALID,0,INVALID,109.071,VALID,0.112112,VALID,23.8286,VALID,80,VALID,0,
2014-03-03, 00:46:05,VALID,1010.56,VALID,0,INVALID,109.079,VALID,0,VALID,23.8481,VALID,80,VALID,0,
2014-03-03, 00:47:05,VALID,1010.55,VALID,0,INVALID,109.071,VALID,0.112112,VALID,23.8481,VALID,80,VALID,0,
2014-03-03, 00:48:05,VALID,1010.54,VALID,0,INVALID,109.094,VALID,0.112112,VALID,23.8286,VALID,80,VALID,0,
2014-03-03, 00:49:05,VALID,1010.53,VALID,0,INVALID,109.102,VALID,0,VALID,23.8091,VALID,80,VALID,0,
2014-03-03, 00:50:05,VALID,1010.52,VALID,0,INVALID,109.109,VALID,0,VALID,23.7896,VALID,80,VALID,0,
2014-03-03, 00:51:05,VALID,1010.48,VALID,0,INVALID,109.094,VALID,0,VALID,23.7701,VALID,80,VALID,0,
2014-03-03, 00:52:05,VALID,1010.44,VALID,0,INVALID,109.102,VALID,0.112112,VALID,23.7701,VALID,80,VALID,0,
2014-03-03, 00:53:05,VALID,1010.4,VALID,0,INVALID,109.109,VALID,0.112112,VALID,23.7312,VALID,80,VALID,0,
2014-03-03, 00:54:05,VALID,1010.36,VALID,0,INVALID,109.094,VALID,0.112112,VALID,23.7117,VALID,80,VALID,0,
2014-03-03, 00:55:05,VALID,1010.35,VALID,0,INVALID,109.094,VALID,0,VALID,23.7117,VALID,80,VALID,0,
2014-03-03, 00:56:05,VALID,1010.31,VALID,0,INVALID,109.102,VALID,0.112112,VALID,23.7117,VALID,80,VALID,0,
2014-03-03, 00:57:05,VALID,1010.28,VALID,0,INVALID,109.079,VALID,0,VALID,23.7135,VALID,80,VALID,0,
2014-03-03, 00:58:05,VALID,1010.22,VALID,0,INVALID,109.048,VALID,0,VALID,23.694,VALID,80,VALID,0,
2014-03-03, 00:59:05,VALID,1010.21,VALID,0,INVALID,109.025,VALID,0,VALID,23.6922,VALID,80,VALID,0,
2014-03-03, 01:00:05,VALID,1010.18,VALID,0,INVALID,109.041,VALID,0,VALID,23.7135,VALID,80,VALID,0,
2014-03-03, 01:01:05,VALID,1010.17,VALID,0,INVALID,109.064,VALID,0,VALID,23.694,VALID,80,VALID,0,
2014-03-03, 01:02:05,VALID,1010.15,VALID,0,INVALID,109.025,VALID,0,VALID,23.694,VALID,80,VALID,0,
2014-03-03, 01:03:05,VALID,1010.15,VALID,0,INVALID,109.056,VALID,0,VALID,23.6727,VALID,80,VALID,0,
2014-03-03, 01:04:05,VALID,1010.15,VALID,0,INVALID,109.048,VALID,0,VALID,23.655,VALID,80,VALID,0,
2014-03-03, 01:05:05,VALID,1010.14,VALID,0,INVALID,109.094,VALID,0,VALID,23.6356,VALID,80,VALID,0,
2014-03-03, 01:06:05,VALID,1010.11,VALID,0,INVALID,109.094,VALID,0,VALID,23.5966,VALID,80,VALID,0,
2014-03-03, 01:07:05,VALID,1010.11,VALID,0,INVALID,109.102,VALID,0,VALID,23.5771,VALID,80,VALID,0,
2014-03-03, 01:08:05,VALID,1010.1,VALID,0,INVALID,109.117,VALID,0,VALID,23.5363,VALID,80,VALID,0,
2014-03-03, 01:09:05,VALID,1010.05,VALID,0,INVALID,109.117,VALID,0,VALID,23.5381,VALID,80,VALID,0,
2014-03-03, 01:10:05,VALID,1010.06,VALID,0,INVALID,109.117,VALID,0,VALID,23.4992,VALID,80,VALID,0,
2014-03-03, 01:11:05,VALID,1010.05,VALID,0,INVALID,109.117,VALID,0,VALID,23.4992,VALID,80,VALID,0,
2014-03-03, 01:12:05,VALID,1010.04,VALID,0,INVALID,109.079,VALID,0,VALID,23.5186,VALID,80,VALID,0,
2014-03-03, 01:13:05,VALID,1010.01,VALID,0,INVALID,109.041,VALID,0,VALID,23.5576,VALID,80,VALID,0,
2014-03-03, 01:14:05,VALID,1010.01,VALID,0,INVALID,109.018,VALID,0,VALID,23.5771,VALID,80,VALID,0,
2014-03-03, 01:15:05,VALID,1010.03,VALID,0,INVALID,109.018,VALID,0,VALID,23.5966,VALID,80,VALID,0,
2014-03-03, 01:16:05,VALID,1010.02,VALID,0,INVALID,109.01,VALID,0,VALID,23.5558,VALID,80,VALID,0,
2014-03-03, 01:17:05,VALID,1010.01,VALID,0,INVALID,109.01,VALID,0,VALID,23.5771,VALID,80,VALID,0,
2014-03-03, 01:18:05,VALID,1009.99,VALID,0,INVALID,109.025,VALID,0,VALID,23.5576,VALID,80,VALID,0,
2014-03-03, 01:19:05,VALID,1009.99,VALID,0,VALID,104,VALID,0,VALID,23.5576,VALID,80,VALID,0,
2014-03-03, 01:20:05,VALID,1010.01,VALID,0,INVALID,109.01,VALID,0,VALID,23.5789,VALID,80,VALID,0,
2014-03-03, 01:21:05,VALID,1010.01,VALID,0,INVALID,109.018,VALID,0,VALID,23.5186,VALID,80,VALID,0,
2014-03-03, 01:22:05,VALID,1010.01,VALID,0,INVALID,109.01,VALID,0,VALID,23.4992,VALID,80,VALID,0,
2014-03-03, 01:23:05,VALID,1010.03,VALID,0,INVALID,109.025,VALID,0,VALID,23.4992,VALID,80,VALID,0,
2014-03-03, 01:24:05,VALID,1010.03,VALID,0,VALID,104,VALID,0,VALID,23.5186,VALID,80,VALID,0,
2014-03-03, 01:25:05,VALID,1010.02,VALID,0,VALID,104,VALID,0,VALID,23.5186,VALID,80,VALID,0,
2014-03-03, 01:26:05,VALID,1010.01,VALID,0,VALID,104,VALID,0,VALID,23.5186,VALID,80,VALID,0,
2014-03-03, 01:27:05,VALID,1010.01,VALID,0,VALID,104,VALID,0,VALID,23.5186,VALID,80,VALID,0,
2014-03-03, 01:28:05,VALID,1010.01,VALID,0,VALID,104,VALID,0,VALID,23.5186,VALID,80,VALID,0,
2014-03-03, 01:29:05,VALID,1010.02,VALID,0,VALID,104,VALID,0,VALID,23.5186,VALID,80,VALID,0,
2014-03-03, 01:30:05,VALID,1010.03,VALID,0,VALID,104,VALID,0,VALID,23.4797,VALID,80,VALID,0,
2014-03-03, 01:31:05,VALID,1010.07,VALID,0,VALID,104,VALID,0,VALID,23.5186,VALID,80,VALID,0,
2014-03-03, 01:32:05,VALID,1010.06,VALID,0,VALID,104,VALID,0,VALID,23.5186,VALID,80,VALID,0,
2014-03-03, 01:33:05,VALID,1010.06,VALID,0,VALID,104,VALID,0,VALID,23.4974,VALID,80,VALID,0,
2014-03-03, 01:34:05,VALID,1010.1,VALID,0,VALID,104,VALID,0,VALID,23.5186,VALID,80,VALID,0,
2014-03-03, 01:35:05,VALID,1010.1,VALID,0,VALID,104,VALID,0,VALID,23.4779,VALID,79,VALID,0,
2014-03-03, 01:36:05,VALID,1010.12,VALID,0,VALID,104,VALID,0,VALID,23.4992,VALID,79,VALID,0,
2014-03-03, 01:37:05,VALID,1010.11,VALID,0,VALID,104,VALID,0,VALID,23.4602,VALID,80,VALID,0,
2014-03-03, 01:38:05,VALID,1010.09,VALID,0,VALID,104,VALID,0,VALID,23.4602,VALID,81,VALID,0,
2014-03-03, 01:39:05,VALID,1010.09,VALID,0,VALID,104,VALID,0,VALID,23.4602,VALID,80,VALID,0,
2014-03-03, 01:40:05,VALID,1010.09,VALID,0,VALID,104,VALID,0,VALID,23.4407,VALID,81,VALID,0,
2014-03-03, 01:41:05,VALID,1010.1,VALID,0,VALID,104,VALID,0,VALID,23.4212,VALID,80,VALID,0,
2014-03-03, 01:42:05,VALID,1010.12,VALID,0,VALID,104,VALID,0,VALID,23.4017,VALID,81,VALID,0,
2014-03-03, 01:43:05,VALID,1010.11,VALID,0,VALID,104,VALID,0,VALID,23.3823,VALID,82,VALID,0,
2014-03-03, 01:44:05,VALID,1010.12,VALID,0,VALID,104,VALID,0,VALID,23.3805,VALID,80,VALID,0,
2014-03-03, 01:45:05,VALID,1010.12,VALID,0,VALID,104,VALID,0,VALID,23.3433,VALID,80,VALID,0,
2014-03-03, 01:46:05,VALID,1010.12,VALID,0,VALID,104,VALID,0,VALID,23.3415,VALID,80,VALID,0,
2014-03-03, 01:47:05,VALID,1010.11,VALID,0,VALID,104,VALID,0,VALID,23.3433,VALID,80,VALID,0,
2014-03-03, 01:48:05,VALID,1010.13,VALID,0,VALID,104,VALID,0,VALID,23.3628,VALID,80,VALID,0,
2014-03-03, 01:49:05,VALID,1010.11,VALID,0,VALID,104,VALID,0,VALID,23.3433,VALID,80,VALID,0,
2014-03-03, 01:50:05,VALID,1010.08,VALID,0,VALID,104,VALID,0,VALID,23.3628,VALID,80,VALID,0,
2014-03-03, 01:51:05,VALID,1010.08,VALID,0,VALID,104,VALID,0,VALID,23.3433,VALID,80,VALID,0,
2014-03-03, 01:52:05,VALID,1010.07,VALID,0,VALID,104,VALID,0,VALID,23.3238,VALID,80,VALID,0,
2014-03-03, 01:53:05,VALID,1010.09,VALID,0,VALID,104,VALID,0,VALID,23.3238,VALID,80,VALID,0,
2014-03-03, 01:54:05,VALID,1010.08,VALID,0,VALID,104,VALID,0,VALID,23.2831,VALID,80,VALID,0,
2014-03-03, 01:55:04,VALID,1010.03,VALID,0,VALID,104,VALID,0,VALID,23.3043,VALID,80,VALID,0,
2014-03-03, 01:56:04,VALID,1010.05,VALID,0,INVALID,109.003,VALID,0,VALID,23.2459,VALID,80,VALID,0,
2014-03-03, 01:57:04,VALID,1010.03,VALID,0,VALID,104,VALID,0,VALID,23.2069,VALID,80,VALID,0,
2014-03-03, 01:58:04,VALID,1010.04,VALID,0,INVALID,109.018,VALID,0,VALID,23.1874,VALID,80,VALID,0,
2014-03-03, 01:59:04,VALID,1010.04,VALID,0,VALID,104,VALID,0,VALID,23.1679,VALID,80,VALID,0,
2014-03-03, 02:00:04,VALID,1010.05,VALID,0,VALID,104,VALID,0,VALID,23.1679,VALID,80,VALID,0,
2014-03-03, 02:01:04,VALID,1010.03,VALID,0,VALID,104,VALID,0.112112,VALID,23.1272,VALID,80,VALID,0,
2014-03-03, 02:02:04,VALID,1010.05,VALID,0,VALID,104,VALID,0,VALID,23.1095,VALID,80,VALID,0,
2014-03-03, 02:03:04,VALID,1010.02,VALID,0,VALID,104,VALID,0,VALID,23.0883,VALID,81,VALID,0,
2014-03-03, 02:04:04,VALID,1010.05,VALID,0,VALID,104,VALID,0,VALID,23.129,VALID,82,VALID,0,
2014-03-03, 02:05:04,VALID,1010.01,VALID,0,VALID,104,VALID,0,VALID,23.129,VALID,80,VALID,0,
2014-03-03, 02:06:04,VALID,1009.99,VALID,0,VALID,104,VALID,0,VALID,23.1272,VALID,80,VALID,0,
2014-03-03, 02:07:04,VALID,1009.98,VALID,0,VALID,104,VALID,0,VALID,23.1485,VALID,81,VALID,0,
2014-03-03, 02:08:04,VALID,1009.99,VALID,0,VALID,104,VALID,0,VALID,23.1874,VALID,81,VALID,0,
2014-03-03, 02:09:04,VALID,1010,VALID,0,VALID,104,VALID,0,VALID,23.2051,VALID,81,VALID,0,
2014-03-03, 02:10:04,VALID,1010,VALID,0,VALID,104,VALID,0,VALID,23.2831,VALID,80,VALID,0,
2014-03-03, 02:11:04,VALID,1009.98,VALID,0,VALID,104,VALID,0,VALID,23.3238,VALID,81,VALID,0,
2014-03-03, 02:12:04,VALID,1010.01,VALID,0,VALID,104,VALID,0,VALID,23.3628,VALID,82,VALID,0,
2014-03-03, 02:13:04,VALID,1009.99,VALID,0,VALID,104,VALID,0,VALID,23.3805,VALID,82,VALID,0,
2014-03-03, 02:14:04,VALID,1010.02,VALID,0,VALID,104,VALID,0,VALID,23.4212,VALID,81,VALID,0,
2014-03-03, 02:15:04,VALID,1010.04,VALID,0,VALID,104,VALID,0,VALID,23.4017,VALID,81,VALID,0,
2014-03-03, 02:16:04,VALID,1010.07,VALID,0,VALID,104,VALID,0,VALID,23.3823,VALID,81,VALID,0,
2014-03-03, 02:17:04,VALID,1010.06,VALID,0,VALID,104,VALID,0,VALID,23.3823,VALID,81,VALID,0,
2014-03-03, 02:18:04,VALID,1010.08,VALID,0,VALID,104,VALID,0,VALID,23.3628,VALID,81,VALID,0,
2014-03-03, 02:19:04,VALID,1010.1,VALID,0,VALID,104,VALID,0,VALID,23.3628,VALID,81,VALID,0,
2014-03-03, 02:20:04,VALID,1010.12,VALID,0,VALID,104,VALID,0,VALID,23.3628,VALID,81,VALID,0,
2014-03-03, 02:21:04,VALID,1010.13,VALID,0,VALID,104,VALID,0,VALID,23.3433,VALID,81,VALID,0,
2014-03-03, 02:22:04,VALID,1010.13,VALID,0,VALID,104,VALID,0,VALID,23.3433,VALID,81,VALID,0,
2014-03-03, 02:23:04,VALID,1010.11,VALID,0,VALID,104,VALID,0,VALID,23.3238,VALID,81,VALID,0,
2014-03-03, 02:24:04,VALID,1010.13,VALID,0,VALID,104,VALID,0,VALID,23.3433,VALID,81,VALID,0,
2014-03-03, 02:25:04,VALID,1010.14,VALID,0,VALID,104,VALID,0,VALID,23.2831,VALID,81,VALID,0,
2014-03-03, 02:26:04,VALID,1010.13,VALID,0,VALID,104,VALID,0,VALID,23.3043,VALID,80,VALID,0,
2014-03-03, 02:27:04,VALID,1010.16,VALID,0,VALID,104,VALID,0,VALID,23.2866,VALID,81,VALID,0,
2014-03-03, 02:28:04,VALID,1010.16,VALID,0,VALID,104,VALID,0,VALID,23.2654,VALID,81,VALID,0,
2014-03-03, 02:29:04,VALID,1010.17,VALID,0,VALID,104,VALID,0,VALID,23.2671,VALID,81,VALID,0,
2014-03-03, 02:30:04,VALID,1010.17,VALID,0,VALID,104,VALID,0,VALID,23.2459,VALID,81,VALID,0,
2014-03-03, 02:31:04,VALID,1010.18,VALID,0,VALID,104,VALID,0,VALID,23.2459,VALID,81,VALID,0,
2014-03-03, 02:32:04,VALID,1010.21,VALID,0,VALID,104,VALID,0,VALID,23.2264,VALID,81,VALID,0,
2014-03-03, 02:33:04,VALID,1010.24,VALID,0,VALID,104,VALID,0,VALID,23.2264,VALID,81,VALID,0,
2014-03-03, 02:34:04,VALID,1010.21,VALID,0,VALID,104,VALID,0,VALID,23.2069,VALID,81,VALID,0,
2014-03-03, 02:35:04,VALID,1010.25,VALID,0,VALID,104,VALID,0,VALID,23.2069,VALID,81,VALID,0,
2014-03-03, 02:36:04,VALID,1010.27,VALID,0,VALID,104,VALID,0,VALID,23.1679,VALID,81,VALID,0,
2014-03-03, 02:37:04,VALID,1010.27,VALID,0,VALID,104,VALID,0,VALID,23.1679,VALID,81,VALID,0,
2014-03-03, 02:38:04,VALID,1010.3,VALID,0,VALID,104,VALID,0,VALID,23.1679,VALID,81,VALID,0,
2014-03-03, 02:39:04,VALID,1010.32,VALID,0,VALID,104,VALID,0,VALID,23.1679,VALID,81,VALID,0,
2014-03-03, 02:40:04,VALID,1010.33,VALID,0,VALID,104,VALID,0,VALID,23.1679,VALID,81,VALID,0,
2014-03-03, 02:41:04,VALID,1010.37,VALID,0,VALID,104,VALID,0,VALID,23.1467,VALID,81,VALID,0,
2014-03-03, 02:42:04,VALID,1010.39,VALID,0,VALID,104,VALID,0,VALID,23.1679,VALID,81,VALID,0,
2014-03-03, 02:43:04,VALID,1010.42,VALID,0,VALID,104,VALID,0,VALID,23.1485,VALID,81,VALID,0,
2014-03-03, 02:44:04,VALID,1010.46,VALID,0,VALID,104,VALID,0,VALID,23.1485,VALID,81,VALID,0,
2014-03-03, 02:45:04,VALID,1010.48,VALID,0,VALID,104,VALID,0,VALID,23.1502,VALID,80,VALID,0,
2014-03-03, 02:46:04,VALID,1010.52,VALID,0,VALID,104,VALID,0,VALID,23.129,VALID,81,VALID,0,
2014-03-03, 02:47:04,VALID,1010.54,VALID,0,VALID,104,VALID,0,VALID,23.1095,VALID,81,VALID,0,
2014-03-03, 02:48:04,VALID,1010.53,VALID,0,VALID,104,VALID,0,VALID,23.1095,VALID,81,VALID,0,
2014-03-03, 02:49:04,VALID,1010.57,VALID,0,VALID,104,VALID,0,VALID,23.09,VALID,81,VALID,0,
2014-03-03, 02:50:04,VALID,1010.58,VALID,0,VALID,104,VALID,0,VALID,23.1095,VALID,81,VALID,0,
2014-03-03, 02:51:04,VALID,1010.59,VALID,0,VALID,104,VALID,0,VALID,23.09,VALID,81,VALID,0,
2014-03-03, 02:52:04,VALID,1010.58,VALID,0,VALID,104,VALID,0,VALID,23.0705,VALID,81,VALID,0,
2014-03-03, 02:53:04,VALID,1010.6,VALID,0,VALID,104,VALID,0,VALID,23.0511,VALID,81,VALID,0,
2014-03-03, 02:54:04,VALID,1010.59,VALID,0,VALID,104,VALID,0,VALID,23.0511,VALID,81,VALID,0,
2014-03-03, 02:55:04,VALID,1010.59,VALID,0,VALID,104,VALID,0,VALID,23.0511,VALID,81,VALID,0,
2014-03-03, 02:56:04,VALID,1010.57,VALID,0,VALID,104,VALID,0,VALID,23.0511,VALID,81,VALID,0,
2014-03-03, 02:57:04,VALID,1010.58,VALID,0,VALID,104,VALID,0,VALID,23.0511,VALID,81,VALID,0,
2014-03-03, 02:58:04,VALID,1010.55,VALID,0,VALID,104,VALID,0,VALID,23.0705,VALID,81,VALID,0,
2014-03-03, 02:59:04,VALID,1010.57,VALID,0,VALID,104,VALID,0,VALID,23.0705,VALID,81,VALID,0,
2014-03-03, 03:00:04,VALID,1010.58,VALID,0,VALID,104,VALID,0,VALID,23.09,VALID,81,VALID,0,
2014-03-03, 03:01:04,VALID,1010.55,VALID,0,VALID,104,VALID,0,VALID,23.09,VALID,54,VALID,0,
2014-03-03, 03:02:04,VALID,1010.54,VALID,0,VALID,104,VALID,0,VALID,23.0705,VALID,98,VALID,0,
2014-03-03, 03:03:04,VALID,1010.54,VALID,0,VALID,104,VALID,0,VALID,23.0705,VALID,98,VALID,0,
2014-03-03, 03:04:04,VALID,1010.52,VALID,0,VALID,104,VALID,0,VALID,23.0298,VALID,98,VALID,0,
2014-03-03, 03:05:04,VALID,1010.49,VALID,0,VALID,104,VALID,0,VALID,23.0511,VALID,91,VALID,0,
2014-03-03, 03:06:04,VALID,1010.49,VALID,0,VALID,104,VALID,0,VALID,23.0511,VALID,91,VALID,0,
2014-03-03, 03:07:04,VALID,1010.48,VALID,0,VALID,104,VALID,0,VALID,23.0316,VALID,92,VALID,0,
2014-03-03, 03:08:04,VALID,1010.51,VALID,0,VALID,104,VALID,0,VALID,23.0121,VALID,91,VALID,0,
2014-03-03, 03:09:04,VALID,1010.49,VALID,0,VALID,104,VALID,0,VALID,23.0121,VALID,86,VALID,0,
2014-03-03, 03:10:04,VALID,1010.49,VALID,0,VALID,104,VALID,0,VALID,23.0121,VALID,86,VALID,0,
2014-03-03, 03:11:04,VALID,1010.47,VALID,0,VALID,104,VALID,0,VALID,23.0121,VALID,86,VALID,0,
2014-03-03, 03:12:04,VALID,1010.46,VALID,0,VALID,104,VALID,0,VALID,22.9926,VALID,86,VALID,0,
2014-03-03, 03:13:04,VALID,1010.46,VALID,0,VALID,104,VALID,0,VALID,22.9926,VALID,86,VALID,0,
2014-03-03, 03:14:04,VALID,1010.47,VALID,0,VALID,104,VALID,0,VALID,22.9731,VALID,86,VALID,0,
2014-03-03, 03:15:04,VALID,1010.47,VALID,0,VALID,104,VALID,0,VALID,22.9731,VALID,86,VALID,0,
2014-03-03, 03:16:04,VALID,1010.46,VALID,0,VALID,104,VALID,0,VALID,22.9731,VALID,86,VALID,0,
2014-03-03, 03:17:04,VALID,1010.48,VALID,0,VALID,104,VALID,0,VALID,22.9731,VALID,86,VALID,0,
2014-03-03, 03:18:04,VALID,1010.46,VALID,0,VALID,104,VALID,0,VALID,22.9731,VALID,86,VALID,0,
2014-03-03, 03:19:04,VALID,1010.46,VALID,0,VALID,104,VALID,0,VALID,22.9731,VALID,86,VALID,0,
2014-03-03, 03:20:04,VALID,1010.48,VALID,0,VALID,104,VALID,0,VALID,22.9731,VALID,86,VALID,0,
2014-03-03, 03:21:04,VALID,1010.45,VALID,0,VALID,104,VALID,0,VALID,22.9731,VALID,86,VALID,0,
2014-03-03, 03:22:04,VALID,1010.45,VALID,0,VALID,104,VALID,0,VALID,22.9731,VALID,86,VALID,0,
2014-03-03, 03:23:04,VALID,1010.44,VALID,0,VALID,104,VALID,0,VALID,22.9731,VALID,87,VALID,0,
2014-03-03, 03:24:04,VALID,1010.42,VALID,0,VALID,104,VALID,0,VALID,22.9536,VALID,82,VALID,0,
2014-03-03, 03:25:04,VALID,1010.42,VALID,0,VALID,104,VALID,0,VALID,22.9536,VALID,84,VALID,0,
2014-03-03, 03:26:04,VALID,1010.4,VALID,0,VALID,104,VALID,0,VALID,22.9536,VALID,84,VALID,0,
2014-03-03, 03:27:04,VALID,1010.4,VALID,0,VALID,104,VALID,0,VALID,22.9536,VALID,84,VALID,0,
2014-03-03, 03:28:04,VALID,1010.4,VALID,0,VALID,104,VALID,0,VALID,22.9342,VALID,84,VALID,0,
2014-03-03, 03:29:04,VALID,1010.38,VALID,0,VALID,104,VALID,0,VALID,22.9342,VALID,85,VALID,0,
2014-03-03, 03:30:04,VALID,1010.37,VALID,0,VALID,104,VALID,0,VALID,22.9342,VALID,83,VALID,0,
2014-03-03, 03:31:04,VALID,1010.34,VALID,0,VALID,104,VALID,0,VALID,22.9359,VALID,84,VALID,0,
2014-03-03, 03:32:04,VALID,1010.33,VALID,0,VALID,104,VALID,0,VALID,22.9147,VALID,84,VALID,0,
2014-03-03, 03:33:04,VALID,1010.35,VALID,0,VALID,104,VALID,0,VALID,22.9147,VALID,84,VALID,0,
2014-03-03, 03:34:04,VALID,1010.32,VALID,0,VALID,104,VALID,0,VALID,22.9147,VALID,84,VALID,0,
2014-03-03, 03:35:04,VALID,1010.31,VALID,0,VALID,104,VALID,0,VALID,22.9147,VALID,84,VALID,0,
2014-03-03, 03:36:04,VALID,1010.3,VALID,0,VALID,104,VALID,0,VALID,22.8952,VALID,84,VALID,0,
2014-03-03, 03:37:04,VALID,1010.32,VALID,0,VALID,104,VALID,0,VALID,22.9359,VALID,84,VALID,0,
2014-03-03, 03:38:04,VALID,1010.31,VALID,0,VALID,104,VALID,0,VALID,22.9147,VALID,84,VALID,0,
2014-03-03, 03:39:04,VALID,1010.35,VALID,0,VALID,104,VALID,0,VALID,22.8952,VALID,84,VALID,0,
2014-03-03, 03:40:04,VALID,1010.35,VALID,0,VALID,104,VALID,0,VALID,22.9147,VALID,84,VALID,0,
2014-03-03, 03:41:04,VALID,1010.36,VALID,0,VALID,104,VALID,0,VALID,22.9147,VALID,84,VALID,0,
2014-03-03, 03:42:04,VALID,1010.38,VALID,0,VALID,104,VALID,0,VALID,22.8935,VALID,84,VALID,0,
2014-03-03, 03:43:04,VALID,1010.41,VALID,0,VALID,104,VALID,0,VALID,22.9147,VALID,84,VALID,0,
2014-03-03, 03:44:04,VALID,1010.43,VALID,0,VALID,104,VALID,0,VALID,22.9147,VALID,84,VALID,0,
2014-03-03, 03:45:04,VALID,1010.42,VALID,0,VALID,104,VALID,0,VALID,22.9342,VALID,84,VALID,0,
2014-03-03, 03:46:04,VALID,1010.43,VALID,0,VALID,104,VALID,0,VALID,22.9342,VALID,84,VALID,0,
2014-03-03, 03:47:04,VALID,1010.43,VALID,0,VALID,104,VALID,0,VALID,22.9342,VALID,83,VALID,0,
2014-03-03, 03:48:04,VALID,1010.44,VALID,0,VALID,104,VALID,0,VALID,22.9147,VALID,84,VALID,0,
2014-03-03, 03:49:04,VALID,1010.44,VALID,0,VALID,104,VALID,0,VALID,22.9147,VALID,83,VALID,0,
2014-03-03, 03:50:04,VALID,1010.45,VALID,0,VALID,104,VALID,0,VALID,22.9147,VALID,83,VALID,0,
2014-03-03, 03:51:04,VALID,1010.44,VALID,0,VALID,104,VALID,0,VALID,22.8952,VALID,84,VALID,0,
2014-03-03, 03:52:04,VALID,1010.43,VALID,0,VALID,104,VALID,0,VALID,22.8952,VALID,83,VALID,0,
2014-03-03, 03:53:04,VALID,1010.45,VALID,0,VALID,104,VALID,0,VALID,22.8952,VALID,84,VALID,0,
2014-03-03, 03:54:04,VALID,1010.43,VALID,0,VALID,104,VALID,0,VALID,22.8952,VALID,84,VALID,0,
2014-03-03, 03:55:04,VALID,1010.43,VALID,0,VALID,104,VALID,0,VALID,22.8952,VALID,83,VALID,0,
2014-03-03, 03:56:04,VALID,1010.42,VALID,0,VALID,104,VALID,0,VALID,22.8757,VALID,84,VALID,0,
2014-03-03, 03:57:04,VALID,1010.43,VALID,0,VALID,104,VALID,0,VALID,22.8562,VALID,84,VALID,0,
2014-03-03, 03:58:04,VALID,1010.43,VALID,0,VALID,104,VALID,0,VALID,22.8562,VALID,83,VALID,0,
2014-03-03, 03:59:04,VALID,1010.42,VALID,0,VALID,104,VALID,0,VALID,22.8562,VALID,83,VALID,0,
2014-03-03, 04:00:04,VALID,1010.43,VALID,0,VALID,104,VALID,0,VALID,22.8368,VALID,84,VALID,0,
2014-03-03, 04:01:04,VALID,1010.45,VALID,0,VALID,104,VALID,0,VALID,22.8368,VALID,83,VALID,0,
2014-03-03, 04:02:04,VALID,1010.47,VALID,0,VALID,104,VALID,0,VALID,22.8173,VALID,83,VALID,0,
2014-03-03, 04:03:04,VALID,1010.46,VALID,0,VALID,104,VALID,0,VALID,22.8368,VALID,83,VALID,0,
2014-03-03, 04:04:04,VALID,1010.48,VALID,0,VALID,104,VALID,0,VALID,22.8173,VALID,83,VALID,0,
2014-03-03, 04:05:04,VALID,1010.46,VALID,0,VALID,104,VALID,0,VALID,22.8368,VALID,83,VALID,0,